Orbital Elements at Epoch 2459000.5 (2020-May-31.0) TDB
Reference: JPL 22 (heliocentric ecliptic J2000)
Element | Value | Uncertainty (1-sigma) | Units |
e | .1009060359652102 | 3.6693e-08 | |
a | 2.777690503678031 | 1.5175e-08 | au |
q | 2.497404765813673 | 1.0739e-07 | au |
i | 4.283609036060757 | 4.5696e-06 | deg |
node | 58.87137520830919 | 5.031e-05 | deg |
peri | 282.6193119262484 | 5.522e-05 | deg |
M | 273.769528271649 | 2.392e-05 | deg |
tp | 2459405.525595415441 (2021-Jul-10.02559542) | 0.00011319 | TDB |
period | 1690.924465876713 4.63 | 1.3857e-05 3.794e-08 | d yr |
n | .212901289954041 | 1.7447e-09 | deg/d |
Q | 3.05797624154239 | 1.6707e-08 | au |
|
| | Orbit Determination Parameters
Additional Information
|